• Join FlightAware (Why Join?)
  • Login
  • US Flag 
08:37PM EDT


 

Airport Tracker/Info


-or-


 

Live Flight TrackerFlight Track Log ✈ N450S ✈ 23-Apr-2013 ✈ KLUK - KLPR

Flight Track Log - Related Links

Times and Time Zones

All times are in EDT time to prevent confusion due to time zone crossing. See the N450S flight status page for this flight to view local times or setup timezone preferences in your user account.

Time Position Orientation Groundspeed Altitude Reporting Facility
EDT Latitude Longitude Course Direction KTS MPH feet Rate Location/Type
04:44PM 39.0833 -84.4167 207° Southwest 135 155 1,300  Level Cincinnati TRACON
04:45PM 39.0333 -84.4500 207° Southwest 152 175 2,900 1,500 Climbing Cincinnati TRACON
04:46PM 39.0333 -84.4000 90° East 194 223 4,600 1,620 Climbing Cincinnati TRACON
04:49PM 39.1433 -84.3725 11° North 179 206 8,600 1,680 Climbing Indianapolis Center
04:50PM 39.2092 -84.3667 North 200 230 10,500 1,200 Climbing Indianapolis Center
04:51PM 39.2697 -84.3550 North 212 244 11,100 240 Climbing Indianapolis Center
04:52PM 39.3475 -84.3497 North 258 297 11,100  Level Indianapolis Center
04:53PM 39.4294 -84.3458 North 285 328 11,100 -60 Level Indianapolis Center
04:54PM 39.5119 -84.3444 North 291 335 11,000  Descending Indianapolis Center
04:56PM 39.6772 -84.3353 North 293 337 11,100 360 Climbing Indianapolis Center
04:57PM 39.7392 -84.2717 38° Northeast 287 330 12,300 1,320 Climbing Indianapolis Center
04:58PM 39.7719 -84.1703 67° East 263 303 13,900 1,260 Climbing Indianapolis Center
04:59PM 39.8003 -84.0867 66° East 251 289 15,000 480 Climbing Indianapolis Center
05:00PM 39.8322 -83.9936 66° East 276 318 15,000  Level Indianapolis Center
05:01PM 39.8667 -83.8947 66° East 294 338 15,000  Level Indianapolis Center
05:02PM 39.9019 -83.7936 66° East 301 346 15,000 -60 Level Indianapolis Center
05:03PM 39.9367 -83.6919 66° East 303 349 14,900 -60 Descending Indianapolis Center
05:04PM 39.9725 -83.5883 66° East 306 352 14,900  Level Indianapolis Center
05:05PM 40.0078 -83.4844 66° East 307 353 15,000  Climbing Indianapolis Center
05:06PM 40.0428 -83.3817 66° East 305 351 15,000  Level Indianapolis Center
05:07PM 40.0761 -83.2808 67° East 299 344 15,000  Level Indianapolis Center
05:08PM 40.1156 -83.1656 66° East 292 336 15,000  Level Indianapolis Center
05:09PM 40.1489 -83.0644 67° East 298 343 15,000  Level Indianapolis Center
05:10PM 40.1831 -82.9631 66° East 302 348 15,100  Climbing Indianapolis Center
05:11PM 40.2169 -82.8617 66° East 301 346 15,000 -60 Descending Indianapolis Center
05:12PM 40.2528 -82.7547 66° East 301 346 15,000  Level Indianapolis Center
05:13PM 40.2867 -82.6539 66° East 300 345 15,000  Level Indianapolis Center
05:14PM 40.3206 -82.5531 66° East 300 345 15,000  Level Indianapolis Center
05:15PM 40.3533 -82.4522 67° East 297 342 15,000  Level Indianapolis Center
05:17PM 40.3856 -82.3533 67° East 293 337 15,000 -420 Level Indianapolis Center
05:18PM 40.4244 -82.2336 67° East 302 348 14,200 -780 Descending Indianapolis Center
05:19PM 40.4578 -82.1311 67° East 303 349 13,500 -660 Descending Indianapolis Center
05:19PM 40.4992 -82.0847 40° Northeast 287 330 13,100 -660 Descending Cleveland Center
05:20PM 40.5667 -82.0233 35° Northeast 287 330 12,400 -660 Descending Cleveland Center
05:21PM 40.6364 -81.9511 38° Northeast 287 330 11,800 -660 Descending Cleveland Center
05:22PM 40.7017 -81.8839 38° Northeast 295 339 11,100 -720 Descending Cleveland Center
05:23PM 40.7692 -81.8222 35° Northeast 295 339 10,400 -720 Descending Cleveland Center
05:24PM 40.8325 -81.7550 39° Northeast 290 334 9,700 -780 Descending Cleveland Center
05:25PM 40.8578 -81.7306 36° Northeast 293 337 9,400 -600 Descending Cleveland Center
05:25PM 40.8997 -81.6928 34° Northeast 290 334 9,100 -420 Descending Cleveland Center
05:26PM 40.9289 -81.6906 North 280 322 9,000 -420 Descending Cleveland Center
05:26PM 40.9683 -81.7050 345° North 257 296 8,700 -840 Descending Cleveland Center
05:27PM 40.9869 -81.7356 309° West 247 284 8,200 -1,020 Descending Cleveland Center
05:27PM 41.0178 -81.7719 318° Northwest 221 254 7,700 -900 Descending Cleveland Center
05:28PM 41.0444 -81.8108 312° West 264 304 7,200 -900 Descending Cleveland Center
05:28PM 41.0733 -81.8392 324° Northwest 246 283 6,800 -1,020 Descending Cleveland Center
05:29PM 41.1019 -81.8808 312° West 263 303 6,200 -1,020 Descending Cleveland Center
05:29PM 41.1206 -81.8950 330° Northwest 256 295 5,800 -1,200 Descending Cleveland Center
05:30PM 41.1578 -81.9428 316° Northwest 265 305 5,000 -1,440 Descending Cleveland Center
05:30PM 41.1742 -81.9625 318° Northwest 262 302 4,400 -1,320 Descending Cleveland Center
05:31PM 41.2089 -82.0128 313° West 262 302 3,700 -1,200 Descending Cleveland Center
05:31PM 41.2275 -82.0297 326° Northwest 262 302 3,200 -720 Descending Cleveland Center
05:32PM 41.2622 -82.0775 314° West 254 292 3,000 -300 Descending Cleveland Center
05:32PM 41.2767 -82.0917 324° Northwest 255 293 2,900 -420 Descending Cleveland Center
05:33PM 41.3117 -82.1200 329° Northwest 211 243 2,600 -600 Descending Cleveland Center
05:33PM 41.3347 -82.1261 349° North 229 264 2,300 -1,140 Descending Cleveland Center
05:34PM 41.3531 -82.1461 321° Northwest 156 180 1,500 -1,320 Descending Cleveland Center
05:36PM 41.3333 -82.1667 217° Southwest  Level FlightAware Approximate
05:43PM 41.3443 -82.1776 217° Southwest  Level Estimated